Tracking 19854 objects as of 22-Sep-2019
HD Live streaming from Space Station
objects crossing your sky now

COSMOS 1275 DEB

Track COSMOS 1275 DEB now!
10-day predictions


NORAD ID: 42187
Int'l Code: 1981-053TB
Perigee: 876.9 km
Apogee: 968.3 km
Inclination: 83.0 °
Period: 103.3 minutes
Semi major axis: 7293 km
RCS: Unknown
Launch date: June 4, 1981
Source: Commonwealth of Independent States (former USSR) (CIS)
Launch site: PLESETSK MISSILE AND SPACE COMPLEX (PKMTR)

Note: This is SATELLITE DEBRIS
aabbcc
Your satellite tracking list
Your tracking list is empty




NASA's NSSDC Master Catalog

Two Line Element Set (TLE):
1 42187U 81053TB  19264.23634665  .00000571  00000-0  41562-3 0  9990
2 42187  82.9690 247.9929 0062658 299.2859  60.2054 13.93766048296204
Source of the keplerian elements: AFSPC